User: anonymous   Login
Location: Laterina
(43.5167°N, 11.7167°E)
Time: 20:59:47
(UTC+00:00)
Language:

CZ-2C R/B - Orbit

View from above orbital plane
View from above orbital plane
View from above satellite
View from above satellite

Ground track
Ground track

The orbit data is extracted from the following two-line orbital elements,

1 31114U 07010B   20332.15076876  .00000043  00000-0  38241-4 0  9997
2 31114  98.2411 173.9578 0060209 151.8856 208.5594 14.19338107706090
Epoch (UTC): 27 November 2020 03:37:06
Eccentricity: 0.0060209
inclination: 98.2411°
perigee height: 784 km
apogee height: 871 km
right ascension of ascending node: 173.9578°
argument of perigee: 151.8856°
revolutions per day: 14.19338107
mean anomaly at epoch: 208.5594°
orbit number at epoch: 70609

The dashed part of the orbit path shows where the satellite is in the earth's shadow,  

DLR